Location: Kervinic
(48.4279°N, 4.7373°W)
Time: 05:10:38
(UTC+00:00)

Mayak - Pass Details

Date: 09 April 2020
Orbit: 581 x 600 km, 97.5° (Epoch: 01 June)

Event Time Altitude Azimuth Distance (km) Brightness Sun altitude
Rises 23:37:18 0° 2° (N) 2,824 ? -32.7°
Reaches altitude 10° 23:39:45 10° 350° (N) 1,916 ? -32.8°
Enters shadow 23:41:47 21° 325° (NW) 1,338 ? -32.9°
